Weather in Bol'shaya Lumar'

Russia / Mari El Republic     57°06′31″N   48°42′50″E
temp.,
°C
wind,
m/s
gust,
m/s
humid.,
%
clouds,
%
prec.,
mm/h
press.,
hPa
HPBL,
m
27 february, sat
sat2700:00−14se81494100 4.6 1001664
03:00−14ese71294100 6.4 1000539
06:00−15e61194100 1.0 999469
09:00−14e71093100 1.4 1000514
12:00−13ene7991100 0.2 1001603
15:00−13ne6992100 0.4 1003604
18:00−13nne51093100 0.2 1005479
21:00−16nne5109699 0.3 1006243
28 february, sun
sun2800:00−19n499784 0.0 1007141
03:00−21n479869 0.0 1009123
06:00−22n469863 0.0 1010100
09:00−20nne469661 0.0 1011222
12:00−17n469367 0.0 1012336
15:00−16n479284 0.0 1013483
18:00−19n349897 0.0 101547
21:00−21n339759 0.0 101724
1 march, mon
mon100:00−22n23990 0.0 101920
03:00−23n221008 0.0 102020
06:00−24n221000 0.0 102220
09:00−20nnw11950 0.0 102366
12:00−15wsw228823 0.0 1022236
15:00−13wsw249046 0.0 1022312
18:00−17sw34961 0.0 102053
21:00−17sw599722 0.0 1018168
2 march, tue
tue200:00−16ssw6119790 0.0 1015232
03:00−14ssw7139695 0.1 1011275
06:00−11ssw81393100 0.6 1006401
09:00−8ssw71294100 0.9 1003421
12:00−5ssw71095100 0.9 1000411
15:00−2ssw5897100 1.8 999408
18:00−1ssw2498100 1.3 998136
21:00−2n61096100 2.6 999448
3 march, wed
wed300:00−8n3697100 0.1 1000104
03:00−9nnw389799 0.2 1002145
06:00−9nnw369797 0.1 1002137
09:00−6nnw489496 0.1 1004307
12:00−4nnw699398 0.1 1005632
15:00−4nnw7109099 0.3 1006753
18:00−9nnw4790100 0.1 1008110
21:00−10nw479469 0.1 100991